sat.trackr.live / text

‹ back to catalog

STARLINK-34715

NORAD 64931 · 2025-157AD

PAYLOAD ACTIVE UNKNOWN

§ Identity

Operator
Country
US
Launch date
2025-07-26
Launch site
AFETR
Launch vehicle
Mass (kg)
RCS (m²)

Purposes: comms

External: N2YO · Heavens-Above · Gunter

§ Orbital elements

Epoch: 2026-05-24T23:26:12.630048Z

Period
94.11 min
Inclination
53.1613°
Eccentricity
0.0001173
Mean motion
15.30199914 rev/d
Perigee alt
474.4 km
Apogee alt
476.0 km
Semi-major
6,853.4 km
B*
9.2681e-4
RAAN
351.3186°
Arg perigee
82.7528°
Mean anomaly
277.3606°
Rev number
4,780

§ Raw data

STARLINK-347151 64931U 25157AD  26144.97653507  .00027191  00000+0  92681-3 0  99902 64931  53.1613 351.3186 0001173  82.7528 277.3606 15.30199914 47807

JSON: /api/v1/satellites/64931 · /tle

For live sub-satellite position, see the globe view (requires WebGL).

§ Visibility from observer

Set your observer location to see the next 7 days of passes ≥ 10°. The values pass through the URL so the page stays shareable.

No JS? Fill the form by hand. The geolocation button needs JavaScript.